Location: Bron Breck
(40.6655°N, 111.8083°W)
Time: 01:47:39
(UTC+00:00)

N. Korean satellite - Pass Details

Date: 02 March 2021
Orbit: 453 x 499 km, 97.2° (Epoch: 11 April)

Event Time Altitude Azimuth Distance (km) Brightness Sun altitude
Rises 12:10:36 0° 25° (NNE) 2,521 10.7 -21.3°
Reaches altitude 10° 12:12:56 10° 40° (NE) 1,647 9.9 -20.9°
Maximum altitude 12:15:50 24° 96° (E) 1,044 9.0 -20.3°
Drops below altitude 10° 12:18:46 10° 151° (SSE) 1,658 9.5 -19.8°
Sets 12:21:07 0° 166° (SSE) 2,542 10.3 -19.4°
